STARLINK-36133

Last updated on Fri Dec 19 2025 00:02:08 GMT+0000 (Coordinated Universal Time)

1 66963U 25288E 25352.58336806 -.01244950 00000+0 -55023-2 0 9994 2 66963 43.0009 131.4037 0001472 269.5976 302.6030 15.86026637 2779
UTC large
Height (km)
Speed (km/s)
/
Latitude / Longitude
Inclination (degrees)
Orbital Period (minutes)
Azimuth
Elevation
Range (km)
Doppler Factor

Next 0 passes for location: London (51.5072 / 0.1276)

Sorry there are no passes over London.